| time (UTC) | temp F | wind direction | speed knots | gust knots | rain 1hr in | rain 24hr in | rain mn in | humidity % | barometer mb |
| 20260506162602 | 62 | 217 | 1.7 | 4.3 | 0.06 | 0.07 | 0.07 | 90 | 1006.6 |
| 20260506161604 | 62 | 225 | 2.6 | 7.0 | 0.04 | 0.05 | 0.05 | 89 | 1006.7 |
| 20260506161102 | 62 | 211 | 3.5 | 8.7 | 0.05 | 0.05 | 0.05 | 89 | 1006.8 |
| 20260506160602 | 62 | 236 | 2.6 | 8.7 | 0.04 | 0.04 | 0.04 | 88 | 1006.7 |
| 20260506155604 | 62 | 255 | 1.7 | 4.3 | 0.03 | 0.03 | 0.03 | 88 | 1007.0 |
| 20260506155104 | 63 | 235 | 2.6 | 4.3 | 0.02 | 0.02 | 0.02 | 87 | 1006.9 |
| 20260506154604 | 63 | 246 | 2.6 | 4.3 | 0.02 | 0.02 | 0.02 | 87 | 1006.9 |
| 20260506153602 | 63 | 219 | 0.9 | 4.3 | 0.01 | 0.01 | 0.01 | 86 | 1007.0 |
| 20260506153103 | 63 | 239 | 1.7 | 7.0 | 0.01 | 0.01 | 0.01 | 86 | 1006.9 |
| 20260506152602 | 64 | 242 | 2.6 | 5.2 | 0.01 | 0.01 | 0.01 | 85 | 1006.8 |
| 20260506152103 | 64 | 169 | 1.7 | 4.3 | 0.01 | 0.01 | 0.01 | 84 | 1006.8 |
| 20260506151603 | 64 | 204 | 2.6 | 8.7 | 0.01 | 0.01 | 0.01 | 84 | 1006.8 |
| 20260506151103 | 64 | 235 | 1.7 | 7.0 | 0.00 | 0.00 | 0.00 | 83 | 1006.8 |
| 20260506150603 | 64 | 227 | 4.3 | 10.4 | 0.00 | 0.00 | 0.00 | 82 | 1007.0 |
| 20260506145603 | 65 | 232 | 1.7 | 4.3 | 0.00 | 0.00 | 0.00 | 81 | 1007.0 |
| 20260506145102 | 65 | 235 | 2.6 | 6.1 | 0.00 | 0.00 | 0.00 | 80 | 1007.1 |
| 20260506144602 | 65 | 229 | 2.6 | 6.1 | 0.00 | 0.00 | 0.00 | 79 | 1007.2 |
| 20260506144103 | 65 | 255 | 2.6 | 6.1 | 0.00 | 0.00 | 0.00 | 79 | 1007.4 |
| 20260506143604 | 65 | 204 | 2.6 | 8.7 | 0.00 | 0.00 | 0.00 | 78 | 1007.4 |
| 20260506143103 | 65 | 255 | 1.7 | 5.2 | 0.00 | 0.00 | 0.00 | 77 | 1007.4 |
| 20260506142603 | 65 | 216 | 3.5 | 7.8 | 0.00 | 0.00 | 0.00 | 77 | 1007.4 |
| 20260506142102 | 65 | 211 | 1.7 | 6.1 | 0.00 | 0.00 | 0.00 | 76 | 1007.4 |
| 20260506141603 | 65 | 228 | 3.5 | 7.8 | 0.00 | 0.00 | 0.00 | 76 | 1007.5 |
| 20260506140603 | 65 | 246 | 3.5 | 7.8 | 0.00 | 0.00 | 0.00 | 76 | 1007.4 |
| 20260506140104 | 65 | 224 | 1.7 | 6.1 | 0.00 | 0.00 | 0.00 | 76 | 1007.3 |
| 20260506135603 | 66 | 225 | 2.6 | 6.1 | 0.00 | 0.00 | 0.00 | 76 | 1007.3 |
| 20260506134603 | 66 | 257 | 2.6 | 6.1 | 0.00 | 0.00 | 0.00 | 76 | 1006.9 |
| 20260506134102 | 66 | 220 | 1.7 | 5.2 | 0.00 | 0.00 | 0.00 | 76 | 1007.0 |
| 20260506133603 | 66 | 223 | 3.5 | 10.4 | 0.00 | 0.00 | 0.00 | 76 | 1006.9 |
| 20260506133103 | 66 | 225 | 2.6 | 8.7 | 0.00 | 0.00 | 0.00 | 76 | 1007.0 |
| 20260506132602 | 66 | 232 | 1.7 | 6.1 | 0.00 | 0.00 | 0.00 | 76 | 1007.0 |
| 20260506132103 | 65 | 231 | 2.6 | 6.1 | 0.00 | 0.00 | 0.00 | 77 | 1006.9 |
| 20260506130603 | 65 | 195 | 3.5 | 6.1 | 0.00 | 0.00 | 0.00 | 77 | 1006.9 |
| 20260506130103 | 65 | 203 | 1.7 | 5.2 | 0.00 | 0.00 | 0.00 | 78 | 1006.9 |
| 20260506125103 | 64 | 240 | 2.6 | 6.1 | 0.00 | 0.00 | 0.00 | 78 | 1006.9 |
| 20260506124604 | 64 | 222 | 2.6 | 5.2 | 0.00 | 0.00 | 0.00 | 78 | 1007.0 |
| 20260506124103 | 64 | 215 | 2.6 | 5.2 | 0.00 | 0.00 | 0.00 | 78 | 1007.3 |
| 20260506123103 | 64 | 240 | 1.7 | 4.3 | 0.00 | 0.00 | 0.00 | 78 | 1007.4 |
| 20260506122602 | 64 | 202 | 2.6 | 5.2 | 0.00 | 0.00 | 0.00 | 78 | 1007.6 |
| 20260506122103 | 64 | 219 | 2.6 | 4.3 | 0.00 | 0.00 | 0.00 | 78 | 1007.6 |
| 20260506121603 | 63 | 203 | 2.6 | 7.0 | 0.00 | 0.00 | 0.00 | 78 | 1007.7 |
| 20260506121102 | 64 | 225 | 2.6 | 7.0 | 0.00 | 0.00 | 0.00 | 78 | 1007.8 |
| 20260506120603 | 64 | 229 | 2.6 | 10.4 | 0.00 | 0.00 | 0.00 | 78 | 1007.7 |
| 20260506115103 | 64 | 235 | 0.9 | 7.0 | 0.00 | 0.00 | 0.00 | 77 | 1007.5 |
| 20260506114604 | 64 | 236 | 3.5 | 8.7 | 0.00 | 0.00 | 0.00 | 77 | 1007.3 |
| 20260506114104 | 64 | 227 | 2.6 | 8.7 | 0.00 | 0.00 | 0.00 | 77 | 1007.4 |
| 20260506113103 | 63 | 222 | 3.5 | 7.0 | 0.00 | 0.00 | 0.00 | 78 | 1007.3 |
| 20260506112103 | 63 | 230 | 2.6 | 7.0 | 0.00 | 0.00 | 0.00 | 78 | 1007.2 |
| 20260506111603 | 63 | 235 | 2.6 | 6.1 | 0.00 | 0.00 | 0.00 | 78 | 1007.2 |
| 20260506111103 | 63 | 246 | 2.6 | 7.8 | 0.00 | 0.00 | 0.00 | 78 | 1007.3 |
| 20260506110604 | 63 | 226 | 2.6 | 4.3 | 0.00 | 0.00 | 0.00 | 79 | 1007.1 |
| 20260506110103 | 62 | 233 | 2.6 | 7.8 | 0.00 | 0.00 | 0.00 | 80 | 1007.0 |
| 20260506105603 | 62 | 204 | 1.7 | 5.2 | 0.00 | 0.00 | 0.00 | 81 | 1006.9 |
| 20260506105104 | 61 | 215 | 1.7 | 6.1 | 0.00 | 0.00 | 0.00 | 82 | 1006.9 |
| 20260506104604 | 61 | 220 | 1.7 | 4.3 | 0.00 | 0.00 | 0.00 | 84 | 1007.0 |
| 20260506104103 | 60 | 238 | 4.3 | 13.9 | 0.00 | 0.00 | 0.00 | 87 | 1007.0 |
| 20260506103603 | 58 | 201 | 2.6 | 6.1 | 0.00 | 0.00 | 0.00 | 90 | 1006.9 |
| 20260506103103 | 57 | 231 | 0.9 | 4.3 | 0.00 | 0.00 | 0.00 | 91 | 1007.0 |
| 20260506102603 | 56 | 259 | 1.7 | 2.6 | 0.00 | 0.00 | 0.00 | 92 | 1007.1 |
| 20260506102103 | 56 | 242 | 1.7 | 2.6 | 0.00 | 0.00 | 0.00 | 92 | 1007.2 |
| 20260506101102 | 55 | 241 | 0.9 | 2.6 | 0.00 | 0.00 | 0.00 | 92 | 1007.1 |
| 20260506100104 | 55 | 338 | 0.9 | 0.9 | 0.00 | 0.00 | 0.00 | 92 | 1007.0 |
| 20260506095104 | 55 | 338 | 0.0 | 0.9 | 0.00 | 0.00 | 0.00 | 91 | 1007.1 |
| 20260506094603 | 55 | 338 | 0.0 | 0.9 | 0.00 | 0.00 | 0.00 | 91 | 1007.0 |
| 20260506093602 | 55 | 338 | 0.9 | 1.7 | 0.00 | 0.00 | 0.00 | 91 | 1006.8 |
| 20260506093103 | 55 | 338 | 0.0 | 0.9 | 0.00 | 0.00 | 0.00 | 91 | 1006.9 |
| 20260506092604 | 55 | 338 | 0.0 | 0.0 | 0.00 | 0.00 | 0.00 | 91 | 1006.9 |
| 20260506091104 | 56 | 338 | 0.0 | 0.9 | 0.00 | 0.00 | 0.00 | 90 | 1007.0 |
| 20260506090603 | 56 | 338 | 0.0 | 0.0 | 0.00 | 0.00 | 0.00 | 90 | 1007.0 |
| 20260506085603 | 56 | 338 | 0.0 | 0.0 | 0.00 | 0.00 | 0.00 | 90 | 1007.0 |
| 20260506085103 | 56 | 338 | 0.0 | 0.0 | 0.00 | 0.00 | 0.00 | 90 | 1007.1 |
| 20260506084103 | 57 | 338 | 0.0 | 0.9 | 0.00 | 0.00 | 0.00 | 89 | 1007.3 |
| 20260506083604 | 57 | 338 | 0.9 | 0.9 | 0.00 | 0.00 | 0.00 | 89 | 1007.3 |
| 20260506083104 | 57 | 338 | 0.9 | 0.9 | 0.00 | 0.00 | 0.00 | 89 | 1007.3 |
| 20260506082603 | 57 | 338 | 0.0 | 0.0 | 0.00 | 0.00 | 0.00 | 89 | 1007.2 |
| 20260506081603 | 57 | 338 | 0.0 | 0.0 | 0.00 | 0.00 | 0.00 | 88 | 1007.2 |
| 20260506081103 | 57 | 338 | 0.0 | 0.0 | 0.00 | 0.00 | 0.00 | 88 | 1007.2 |
| 20260506073103 | 59 | 338 | 0.0 | 0.9 | 0.00 | 0.00 | 0.00 | 86 | 1007.7 |
| 20260506072603 | 59 | 338 | 0.9 | 1.7 | 0.00 | 0.00 | 0.00 | 86 | 1007.6 |
| 20260506072103 | 59 | 338 | 0.0 | 0.9 | 0.00 | 0.00 | 0.00 | 86 | 1007.8 |
| 20260506071603 | 59 | 338 | 0.0 | 0.9 | 0.00 | 0.00 | 0.00 | 86 | 1007.9 |
| 20260506071103 | 59 | 338 | 0.9 | 0.9 | 0.00 | 0.00 | 0.00 | 85 | 1007.9 |
| 20260506070603 | 59 | 338 | 0.0 | 0.9 | 0.00 | 0.00 | 0.00 | 85 | 1008.0 |
| 20260506070103 | 59 | 338 | 0.0 | 0.9 | 0.00 | 0.00 | 0.00 | 85 | 1007.9 |
| 20260506062103 | 60 | 340 | 1.7 | 2.6 | 0.00 | 0.00 | 0.00 | 84 | 1008.3 |
| 20260506061604 | 60 | 341 | 0.9 | 1.7 | 0.00 | 0.00 | 0.00 | 83 | 1008.3 |
| 20260506061103 | 60 | 341 | 1.7 | 2.6 | 0.00 | 0.00 | 0.00 | 83 | 1008.2 |
| 20260506060603 | 60 | 295 | 0.9 | 1.7 | 0.00 | 0.00 | 0.00 | 82 | 1008.3 |
| 20260506050603 | 62 | 295 | 0.9 | 2.6 | 0.00 | 0.00 | 0.00 | 79 | 1008.5 |
| 20260506050103 | 62 | 355 | 0.9 | 4.3 | 0.00 | 0.00 | 0.00 | 79 | 1008.6 |
| 20260506045103 | 62 | 303 | 0.9 | 2.6 | 0.00 | 0.00 | 0.00 | 79 | 1008.7 |
| 20260506044603 | 62 | 340 | 1.7 | 5.2 | 0.00 | 0.00 | 0.00 | 79 | 1008.6 |
| 20260506044103 | 63 | 349 | 2.6 | 7.0 | 0.00 | 0.00 | 0.00 | 79 | 1008.5 |
| 20260506043603 | 63 | 340 | 1.7 | 7.8 | 0.00 | 0.00 | 0.00 | 79 | 1008.5 |
| 20260506043103 | 63 | 331 | 1.7 | 7.0 | 0.00 | 0.00 | 0.00 | 78 | 1008.3 |
| 20260506042603 | 64 | 299 | 1.7 | 4.3 | 0.00 | 0.00 | 0.00 | 76 | 1008.3 |
| 20260506042104 | 64 | 346 | 0.9 | 2.6 | 0.00 | 0.00 | 0.00 | 75 | 1008.1 |
| 20260506041603 | 65 | 346 | 1.7 | 4.3 | 0.00 | 0.00 | 0.00 | 73 | 1008.1 |
| 20260506041104 | 65 | 275 | 0.0 | 0.9 | 0.00 | 0.00 | 0.00 | 72 | 1007.9 |
| 20260506040603 | 65 | 275 | 0.9 | 0.9 | 0.00 | 0.00 | 0.00 | 72 | 1007.8 |
| 20260506035603 | 65 | 275 | 0.9 | 1.7 | 0.00 | 0.00 | 0.00 | 72 | 1007.6 |
| 20260506035104 | 65 | 275 | 0.9 | 1.7 | 0.00 | 0.00 | 0.00 | 71 | 1007.6 |
| 20260506034603 | 66 | 275 | 0.9 | 1.7 | 0.00 | 0.00 | 0.00 | 70 | 1007.6 |
| 20260506033603 | 67 | 275 | 0.0 | 1.7 | 0.00 | 0.00 | 0.00 | 68 | 1007.5 |
| 20260506033103 | 68 | 275 | 0.9 | 2.6 | 0.00 | 0.00 | 0.00 | 66 | 1007.4 |
| 20260506032103 | 70 | 335 | 4.3 | 6.1 | 0.00 | 0.00 | 0.00 | 54 | 1007.5 |
| 20260506031603 | 70 | 243 | 2.6 | 4.3 | 0.00 | 0.00 | 0.00 | 51 | 1007.2 |
| 20260506031103 | 69 | 243 | 2.6 | 4.3 | 0.00 | 0.00 | 0.00 | 53 | 1007.1 |
| 20260506030604 | 68 | 248 | 2.6 | 6.1 | 0.00 | 0.00 | 0.00 | 57 | 1007.1 |
| 20260506030104 | 67 | 257 | 2.6 | 6.1 | 0.00 | 0.00 | 0.00 | 61 | 1007.1 |
| 20260506025604 | 66 | 251 | 1.7 | 4.3 | 0.00 | 0.00 | 0.00 | 64 | 1007.1 |
| 20260506024603 | 65 | 263 | 0.9 | 1.7 | 0.00 | 0.00 | 0.00 | 71 | 1007.1 |
| 20260506024104 | 65 | 290 | 0.9 | 1.7 | 0.00 | 0.00 | 0.00 | 73 | 1007.0 |
| 20260506023603 | 65 | 290 | 0.9 | 1.7 | 0.00 | 0.00 | 0.00 | 74 | 1007.1 |
| 20260506023103 | 65 | 290 | 0.9 | 1.7 | 0.00 | 0.00 | 0.00 | 74 | 1007.1 |
| 20260506022603 | 65 | 290 | 0.9 | 1.7 | 0.00 | 0.00 | 0.00 | 74 | 1007.2 |
| 20260506022104 | 65 | 290 | 0.0 | 1.7 | 0.00 | 0.00 | 0.00 | 74 | 1007.3 |
| 20260506021604 | 65 | 290 | 0.9 | 1.7 | 0.00 | 0.00 | 0.00 | 74 | 1007.3 |
| 20260506020103 | 66 | 290 | 0.9 | 1.7 | 0.00 | 0.00 | 0.00 | 73 | 1007.5 |
| 20260506015603 | 66 | 290 | 0.9 | 1.7 | 0.00 | 0.00 | 0.00 | 72 | 1007.6 |
| 20260506014604 | 66 | 289 | 0.9 | 5.2 | 0.00 | 0.00 | 0.00 | 71 | 1007.5 |
| 20260506013603 | 67 | 93 | 0.9 | 1.7 | 0.00 | 0.00 | 0.00 | 69 | 1007.2 |
| 20260506013103 | 67 | 97 | 0.0 | 0.9 | 0.00 | 0.00 | 0.00 | 68 | 1007.2 |
| 20260506012603 | 67 | 97 | 0.9 | 1.7 | 0.00 | 0.00 | 0.00 | 69 | 1007.0 |
| 20260506012103 | 66 | 97 | 0.9 | 1.7 | 0.00 | 0.00 | 0.00 | 69 | 1007.0 |
| 20260506011603 | 66 | 97 | 0.9 | 1.7 | 0.00 | 0.00 | 0.00 | 69 | 1006.9 |
| 20260506011103 | 66 | 97 | 0.9 | 1.7 | 0.00 | 0.00 | 0.00 | 69 | 1006.9 |
| 20260506010604 | 66 | 97 | 0.0 | 0.9 | 0.00 | 0.00 | 0.00 | 69 | 1006.9 |
| 20260506005603 | 66 | 97 | 1.7 | 2.6 | 0.00 | 0.00 | 0.00 | 70 | 1006.8 |
| 20260506005103 | 66 | 97 | 1.7 | 2.6 | 0.00 | 0.00 | 0.00 | 70 | 1006.8 |
| 20260506004604 | 66 | 97 | 0.9 | 5.2 | 0.00 | 0.00 | 0.00 | 70 | 1006.8 |
| 20260506004103 | 66 | 93 | 2.6 | 4.3 | 0.00 | 0.00 | 0.00 | 70 | 1006.7 |
| 20260506003603 | 66 | 93 | 0.9 | 2.6 | 0.00 | 0.00 | 0.00 | 70 | 1006.7 |
| 20260506002604 | 67 | 93 | 0.9 | 2.6 | 0.00 | 0.00 | 0.00 | 70 | 1006.6 |
| 20260506002104 | 67 | 93 | 1.7 | 2.6 | 0.00 | 0.00 | 0.00 | 70 | 1006.6 |
| 20260506001603 | 67 | 92 | 0.9 | 1.7 | 0.00 | 0.00 | 0.00 | 69 | 1006.7 |
| 20260506001104 | 67 | 92 | 0.0 | 0.9 | 0.00 | 0.00 | 0.00 | 69 | 1006.7 |
| 20260506000104 | 67 | 93 | 0.9 | 1.7 | 0.00 | 0.00 | 0.00 | 69 | 1006.4 |
| 20260505235603 | 67 | 93 | 1.7 | 2.6 | 0.00 | 0.00 | 0.00 | 69 | 1006.4 |
| 20260505235103 | 67 | 93 | 0.9 | 1.7 | 0.00 | 0.00 | 0.00 | 69 | 1006.4 |
| 20260505234603 | 67 | 93 | 0.9 | 2.6 | 0.00 | 0.00 | 0.00 | 69 | 1006.3 |
| 20260505233103 | 67 | 96 | 1.7 | 4.3 | 0.00 | 0.00 | 0.00 | 69 | 1006.2 |
| 20260505232603 | 67 | 101 | 0.9 | 2.6 | 0.00 | 0.00 | 0.00 | 68 | 1006.3 |
| 20260505232104 | 68 | 105 | 1.7 | 2.6 | 0.00 | 0.00 | 0.00 | 68 | 1006.4 |
| 20260505230604 | 68 | 266 | 0.9 | 2.6 | 0.00 | 0.00 | 0.00 | 66 | 1006.2 |
| 20260505225603 | 69 | 101 | 1.7 | 5.2 | 0.00 | 0.00 | 0.00 | 64 | 1006.2 |
| 20260505225103 | 70 | 8 | 1.7 | 4.3 | 0.00 | 0.00 | 0.00 | 61 | 1006.2 |
| 20260505224603 | 71 | 347 | 0.9 | 2.6 | 0.00 | 0.00 | 0.00 | 59 | 1006.0 |
| 20260505223603 | 74 | 3 | 2.6 | 10.4 | 0.00 | 0.00 | 0.00 | 51 | 1006.1 |
| 20260505223105 | 77 | 334 | 5.2 | 8.7 | 0.00 | 0.00 | 0.00 | 45 | 1006.1 |
| 20260505222603 | 79 | 298 | 5.2 | 7.8 | 0.00 | 0.00 | 0.00 | 34 | 1005.8 |
| 20260505221604 | 79 | 255 | 5.2 | 11.3 | 0.00 | 0.00 | 0.00 | 33 | 1004.8 |
| 20260505221103 | 79 | 239 | 4.3 | 7.8 | 0.00 | 0.00 | 0.00 | 32 | 1004.7 |
| 20260505220603 | 79 | 256 | 2.6 | 6.1 | 0.00 | 0.00 | 0.00 | 32 | 1004.6 |
| 20260505220104 | 80 | 238 | 4.3 | 10.4 | 0.00 | 0.00 | 0.00 | 31 | 1004.5 |
| 20260505215603 | 80 | 248 | 5.2 | 10.4 | 0.00 | 0.00 | 0.00 | 31 | 1004.4 |
| 20260505215104 | 80 | 250 | 6.1 | 13.0 | 0.00 | 0.00 | 0.00 | 31 | 1004.3 |
| 20260505214604 | 80 | 239 | 5.2 | 10.4 | 0.00 | 0.00 | 0.00 | 31 | 1004.3 |
| 20260505213603 | 80 | 249 | 5.2 | 10.4 | 0.00 | 0.00 | 0.00 | 31 | 1004.1 |
| 20260505213104 | 81 | 239 | 6.1 | 10.4 | 0.00 | 0.00 | 0.00 | 31 | 1004.0 |
| 20260505212603 | 81 | 256 | 6.1 | 12.2 | 0.00 | 0.00 | 0.00 | 31 | 1004.0 |
| 20260505212103 | 82 | 244 | 6.1 | 10.4 | 0.00 | 0.00 | 0.00 | 31 | 1003.9 |
| 20260505211603 | 82 | 239 | 6.1 | 13.9 | 0.00 | 0.00 | 0.00 | 31 | 1003.9 |
| 20260505211103 | 82 | 241 | 4.3 | 14.8 | 0.00 | 0.00 | 0.00 | 31 | 1003.8 |
| 20260505210604 | 82 | 236 | 6.1 | 13.9 | 0.00 | 0.00 | 0.00 | 30 | 1003.8 |
| 20260505210104 | 81 | 242 | 3.5 | 15.6 | 0.00 | 0.00 | 0.00 | 31 | 1003.7 |
| 20260505205604 | 81 | 234 | 7.8 | 13.9 | 0.00 | 0.00 | 0.00 | 31 | 1003.7 |
| 20260505205103 | 81 | 238 | 7.0 | 14.8 | 0.00 | 0.00 | 0.00 | 32 | 1003.7 |
| 20260505204603 | 81 | 226 | 5.2 | 13.0 | 0.00 | 0.00 | 0.00 | 33 | 1003.7 |
| 20260505204103 | 82 | 241 | 7.0 | 13.0 | 0.00 | 0.00 | 0.00 | 33 | 1003.8 |
| 20260505203603 | 81 | 251 | 6.1 | 13.0 | 0.00 | 0.00 | 0.00 | 32 | 1003.8 |
| 20260505202603 | 82 | 238 | 6.1 | 13.9 | 0.00 | 0.00 | 0.00 | 33 | 1004.3 |
| 20260505202105 | 81 | 245 | 4.3 | 18.2 | 0.00 | 0.00 | 0.00 | 34 | 1004.1 |
| 20260505201603 | 81 | 240 | 6.1 | 13.9 | 0.00 | 0.00 | 0.00 | 33 | 1004.0 |
| 20260505201104 | 81 | 244 | 5.2 | 7.8 | 0.00 | 0.00 | 0.00 | 33 | 1004.0 |
| 20260505200104 | 81 | 232 | 5.2 | 13.9 | 0.00 | 0.00 | 0.00 | 33 | 1003.9 |
| 20260505195604 | 81 | 284 | 5.2 | 10.4 | 0.00 | 0.00 | 0.00 | 34 | 1004.1 |
| 20260505195103 | 81 | 237 | 5.2 | 13.0 | 0.00 | 0.00 | 0.00 | 35 | 1004.1 |
| 20260505194603 | 82 | 246 | 8.7 | 14.8 | 0.00 | 0.00 | 0.00 | 34 | 1004.1 |
| 20260505194103 | 82 | 240 | 4.3 | 10.4 | 0.00 | 0.00 | 0.00 | 35 | 1004.2 |
| 20260505193604 | 82 | 247 | 6.1 | 13.9 | 0.00 | 0.00 | 0.00 | 34 | 1004.2 |
| 20260505193105 | 82 | 248 | 6.1 | 13.9 | 0.00 | 0.00 | 0.00 | 34 | 1004.3 |
| 20260505192604 | 81 | 255 | 4.3 | 11.3 | 0.00 | 0.00 | 0.00 | 35 | 1004.3 |
| 20260505192104 | 81 | 261 | 7.0 | 11.3 | 0.00 | 0.00 | 0.00 | 35 | 1004.3 |
| 20260505191603 | 81 | 216 | 4.3 | 8.7 | 0.00 | 0.00 | 0.00 | 37 | 1004.5 |
| 20260505191105 | 81 | 235 | 5.2 | 10.4 | 0.00 | 0.00 | 0.00 | 36 | 1004.5 |
| 20260505190606 | 81 | 234 | 4.3 | 10.4 | 0.00 | 0.00 | 0.00 | 36 | 1004.5 |
| 20260505185103 | 80 | 302 | 6.1 | 6.1 | 0.00 | 0.00 | 0.00 | 37 | 1004.8 |
| 20260505184603 | 80 | 302 | 6.1 | 6.1 | 0.00 | 0.00 | 0.00 | 37 | 1004.8 |
| 20260505184103 | 80 | 302 | 6.1 | 10.4 | 0.00 | 0.00 | 0.00 | 37 | 1004.8 |
| 20260505183603 | 80 | 248 | 5.2 | 11.3 | 0.00 | 0.00 | 0.00 | 37 | 1004.8 |
| 20260505183103 | 80 | 243 | 7.8 | 13.0 | 0.00 | 0.00 | 0.00 | 37 | 1004.8 |
| 20260505182603 | 80 | 234 | 7.8 | 18.2 | 0.00 | 0.00 | 0.00 | 36 | 1004.9 |
| 20260505182103 | 81 | 234 | 6.1 | 13.9 | 0.00 | 0.00 | 0.00 | 36 | 1005.1 |
| 20260505181603 | 81 | 215 | 4.3 | 8.7 | 0.00 | 0.00 | 0.00 | 36 | 1005.2 |
| 20260505181103 | 81 | 261 | 6.1 | 10.4 | 0.00 | 0.00 | 0.00 | 36 | 1005.1 |
| 20260505180603 | 81 | 256 | 7.0 | 11.3 | 0.00 | 0.00 | 0.00 | 37 | 1005.1 |
| 20260505175603 | 81 | 259 | 6.1 | 10.4 | 0.00 | 0.00 | 0.00 | 36 | 1005.2 |
| 20260505174603 | 32 | 0 | 0.0 | 0.0 | 0.00 | 0.00 | 0.00 | 100 | 217.8 |
| 20260505174103 | 32 | 0 | 0.0 | 0.0 | 0.00 | 0.00 | 0.00 | 100 | |
| 20260505173603 | 32 | 0 | 0.0 | 0.0 | 0.00 | 0.00 | 0.00 | 100 |